Weather in Turovo

Russia / Pskov Oblast     56°58′45″N   29°39′15″E
temp.,
°C
wind,
m/s
gust,
m/s
humid.,
%
clouds,
%
prec.,
mm/h
press.,
hPa
HPBL,
m
20 april, tue
tue2000:00+7e25825 0.0 1022124
03:00+6ene2481100 0.0 1022106
06:00+6e2576100 0.0 1020197
09:00+8ese4773100 0.6 1019736
12:00+7ese5681100 0.4 1019922
15:00+9e4564100 0.4 10171242
18:00+8ese3564100 0.0 10161188
21:00+6ese2690100 0.2 1015941
21 april, wed
wed2100:00+6ene248878 0.2 1014243
03:00+6nne1387100 0.3 1012122
06:00+5nne2489100 0.0 1010266
09:00+6nnw237998 0.0 1009439
12:00+10nw345893 0.1 10071433
15:00+10w4556100 0.5 10061580
18:00+10wsw355383 0.1 10061414
21:00+6ssw367565 0.1 100695
22 april, thu
thu2200:00+7ssw41276100 0.1 1006344
03:00+5ssw411876 0.6 1006278
06:00+5ssw3990100 0.0 1006200
09:00+10sw466110 0.0 1007525
12:00+14ssw47435 0.0 10072003
15:00+14ssw584499 0.1 10062084
18:00+11wsw577496 1.5 1007943
21:00+5sw2683100 1.6 1008151
23 april, fri
fri2300:00+5ssw3881100 0.0 1009322
03:00+4ssw2684100 0.0 1009227
06:00+3ssw3880100 0.0 1009396
09:00+6ssw59615 0.0 10101167
12:00+8ssw6942100 0.0 10102296
15:00+8sw5846100 0.0 10111924
18:00+8sw4648100 0.0 10111622
21:00+3wsw226645 0.0 101213
24 april, sat
sat2400:00+2s227243 0.0 101132
03:00+1sw248512 0.0 101080
06:00−1sw24956 0.0 100990
09:00+3wsw3478100 0.0 1009738
12:00+4wsw3465100 0.0 10091232
15:00+7wsw245197 0.1 10081630
18:00+5wsw557094 0.8 1008925
21:00+1wsw389043 0.8 1008327